Location: Unspecified
(47.6577°N, 23.5639°E)
Time: 20:37:10
(UTC+03:00)

ISS - Pass Details

Date: 01 February 2017
Orbit: 402 x 409 km, 51.6° (Epoch: 25 May)

Event Time Altitude Azimuth Distance (km) Brightness Sun altitude
Rises 18:17:28 0° 226° (SW) 2,328 1.2 -8.8°
Reaches altitude 10° 18:19:36 10° 219° (SW) 1,467 -0.1 -9.2°
Maximum altitude 18:22:44 43° 147° (SSE) 586 -3.2 -9.7°
Enters shadow 18:25:09 15° 79° (E) 1,191 -2.1 -10.1°
